Weather History for Mansfield, OH

Change the Weather History Date:

Tuesday, May 6, 2014

  Actual Average Record
Temperature  
Mean Temperature 52 °F 56 °F  
Max Temperature 65 °F 67 °F 86 °F (1959)
Min Temperature 39 °F 45 °F 24 °F (1957)
Degree Days  
Heating Degree Days 13 10  
Month to date heating degree days 89 63  
Since 1 July heating degree days 6602 6048  
Cooling Degree Days 0 1  
Month to date cooling degree days 0 1  
Year to date cooling degree days 2 9  
Growing Degree Days 2 (Base 50)    
Moisture  
Dew Point 36 °F    
Average Humidity 60    
Maximum Humidity 83    
Minimum Humidity 36    
Precipitation  
Precipitation 0.00 in 0.13 in 1.38 in (1971)
Month to date precipitation 0.02 0.81  
Year to date precipitation 13.35 13.60  
Snow  
Snow 0.00 in 0.00 in - ()
Month to date snowfall 0.0 0.0  
Since 1 July snowfall 65.4 48.3  
Snow Depth 0.00 in    
Sea Level Pressure  
Sea Level Pressure 30.03 in    
Wind  
Wind Speed 8 mph (NNE)    
Max Wind Speed 14 mph    
Max Gust Speed 22 mph    
Visibility 10 miles    
Events      
T = Trace of Precipitation, MM = Missing Value Source: NWS Daily Summary

Daily Weather History Graph

Daily Weather History Graph

Search for Another Location

Airport:

Trip Planner

Search our weather history database for the weather conditions in past years. The results will help you decide how hot, cold, wet, or windy it might be!

Date:

Astronomy

May. 06, 2014 Rise Set
Actual Time 6:22 AM EDT 8:31 PM EDT
Civil Twilight 5:52 AM EDT 9:02 PM EDT
Nautical Twilight 5:15 AM EDT 9:39 PM EDT
Astronomical Twilight 4:34 AM EDT 10:20 PM EDT
Moon 12:37 PM EDT (5/6) 1:49 AM EDT (5/6)
Length of Visible Light 15h 09m
Length of Day
14h 09m
Waxing Crescent, 46% of the Moon is Illuminated
May 6
Waxing Crescent
May 6
First Quarter
May 14
Full
May 21
Last Quarter
May 28
New

Hourly Weather History & Observations

Time (EDT) Temp. Windchill Dew Point Humidity Pressure Visibility Wind Dir Wind Speed Gust Speed Precip Events Conditions
12:52 AM 44.1 °F 40.1 °F 39.0 °F 82% 29.97 in 10.0 mi NNE 6.9 mph - N/A   Mostly Cloudy
1:52 AM 42.8 °F 39.3 °F 37.4 °F 81% 29.96 in 10.0 mi NNE 5.8 mph - N/A   Partly Cloudy
2:52 AM 42.1 °F 38.4 °F 36.0 °F 79% 29.97 in 10.0 mi NNE 5.8 mph - N/A   Clear
3:52 AM 42.1 °F 36.6 °F 33.1 °F 70% 29.98 in 10.0 mi NNE 9.2 mph - N/A   Clear
7:52 AM 46.0 °F 43.1 °F 34.0 °F 63% 30.04 in 10.0 mi NE 5.8 mph - N/A   Clear
8:52 AM 50.0 °F - 37.0 °F 61% 30.05 in 10.0 mi NE 10.4 mph - N/A   Clear
10:52 AM 55.0 °F - 37.9 °F 53% 30.06 in 10.0 mi NE 8.1 mph - N/A   Clear
11:52 AM 57.0 °F - 37.0 °F 47% 30.06 in 10.0 mi NE 8.1 mph 17.3 mph N/A   Clear
12:52 PM 60.1 °F - 36.0 °F 41% 30.05 in 10.0 mi NNE 9.2 mph - N/A   Clear
1:52 PM 61.0 °F - 37.9 °F 42% 30.04 in 10.0 mi ENE 5.8 mph - N/A   Clear
2:52 PM 62.1 °F - 37.9 °F 41% 30.04 in 10.0 mi North 9.2 mph - N/A   Clear
3:52 PM 63.0 °F - 37.0 °F 38% 30.03 in 10.0 mi North 12.7 mph - N/A   Clear
4:52 PM 63.0 °F - 37.0 °F 38% 30.02 in 10.0 mi ENE 8.1 mph - N/A   Clear
5:52 PM 63.0 °F - 36.0 °F 37% 30.02 in 10.0 mi NNE 6.9 mph - N/A   Clear
6:52 PM 61.0 °F - 37.0 °F 41% 30.02 in 10.0 mi NNE 10.4 mph - N/A   Clear
7:52 PM 57.0 °F - 36.0 °F 45% 30.03 in 10.0 mi NNE 8.1 mph - N/A   Clear
8:52 PM 53.1 °F - 37.0 °F 55% 30.04 in 10.0 mi NNE 8.1 mph - N/A   Clear
9:52 PM 50.0 °F - 36.0 °F 59% 30.05 in 10.0 mi NE 8.1 mph - N/A   Clear
10:52 PM 50.0 °F - 34.0 °F 54% 30.05 in 10.0 mi NNE 6.9 mph - N/A   Clear
11:52 PM 48.9 °F - 36.0 °F 61% 30.03 in 10.0 mi NE 9.2 mph - N/A   Clear